[[{"header":{"parameterUnit":"m.s-1","parameterCategory":2,"la1":30.2991,"la2":30.254,"lo1":-89.0895,"lo2":-89.0444,"dy":0.0017,"dx":0.0017,"nx":28,"ny":28,"refTime":"2024-03-29T21:00:00:Z","depth":"0","parameterNumber":2,"parameterNumberName":"U-component_of_CURRENTS"},"data":[0,0,0,0,0,0,0,0,0,0,0,0,0,0,0,0,0,0,0,0,0,0,0,0,0,0,0,0,0,0,0,0,0,0,0,0,0,0,0,0,0,0,0,0,0,0,0,0,0,0,0,0,0,0,0,0,0,0,0.2772,0.2773,0,0.284,0.2841,0.2841,0.2855,0.2854,0.2854,0.2854,0.2876,0.2877,0.2878,0,0,0,0,0,0,0,0,0,0,0,0,0,0.269,0.2691,0.2772,0.2773,0.2775,0.284,0.2841,0.2841,0.2855,0.2854,0.2854,0.2854,0.2876,0.2877,0.2878,0,0,0,0,0,0,0,0,0,0,0,0,0,0.2736,0.2691,0.2772,0.2791,0.2794,0.284,0.2841,0.2841,0.2855,0.2854,0.2854,0.2854,0.2876,0.2877,0.2878,0.2895,0,0,0.2882,0.2883,0,0,0,0,0,0,0,0,0.2733,0.2739,0.2787,0.279,0.2793,0.2841,0.282,0.2858,0.2855,0.2829,0.2854,0.2853,0.2862,0.2865,0.2875,0.2896,0.2897,0.2882,0.2883,0.2884,0.2884,0,0,0,0,0,0,0,0.273,0.2736,0.2797,0.2788,0.2792,0.2808,0.2814,0.2827,0.2844,0.2831,0.2833,0.2845,0.2863,0.2874,0.2876,0.2897,0.2882,0.2884,0.2884,0.2885,0.298,0.2981,0,0,0,0,0,0,0.2726,0.2733,0.2795,0.2799,0.2764,0.281,0.2816,0.2824,0.2845,0.2849,0.2845,0.2845,0.2872,0.2874,0.2877,0.2933,0.2884,0.2885,0.2886,0.2978,0.298,0.2982,0,0,0,0,0,0,0.2723,0.273,0.2792,0.277,0.2779,0.2812,0.282,0.2825,0.2841,0.2857,0.2859,0.2857,0.2872,0.2875,0.2911,0.2932,0.2886,0.2887,0.2976,0.2979,0.2981,0.3022,0,0,0,0,0,0,0.2721,0.2729,0.2734,0.2769,0.278,0.2829,0.2821,0.2827,0.285,0.2851,0.2868,0.2869,0.2872,0.2909,0.2912,0.2933,0.2888,0.2974,0.2977,0.298,0.3019,0.3026,0.3032,0,0,0,0,0,0.2717,0.2722,0.2733,0.2741,0.2785,0.283,0.2837,0.2857,0.2851,0.2867,0.2885,0.2869,0.2931,0.2912,0.2915,0.2937,0.2972,0.2976,0.298,0.3016,0.3025,0.3032,0,0,0,0,0,0,0.2685,0.2726,0.2738,0.2754,0.2796,0.2833,0.2847,0.2861,0.2888,0.2886,0.2892,0.2896,0.2942,0.2935,0.2913,0.2976,0.2949,0.2953,0.2975,0.2983,0.299,0.2986,0.2889,0,0,0,0,0,0.2683,0.2695,0.2744,0.2757,0.2779,0.2814,0.2833,0.2852,0.2881,0.2892,0.2908,0.2928,0.2961,0.2967,0.2996,0.3022,0.3058,0.3039,0.3046,0.3051,0.3053,0.3135,0.3149,0.2995,0.2995,0.2995,0,0,0.2671,0.2696,0.2702,0.2752,0.278,0.2817,0.2824,0.2859,0.2887,0.289,0.2928,0.2958,0.2978,0.3021,0.3038,0.3014,0.3122,0.3056,0.3061,0.3059,0.3141,0.3156,0.3169,0.2997,0.2997,0.2997,0,0,0.2659,0.2683,0.2694,0.2732,0.2784,0.2818,0.283,0.288,0.2901,0.2946,0.2965,0.3009,0.3041,0.3071,0.3085,0.3143,0.3165,0.3151,0.3167,0.3248,0.3261,0.3273,0.3368,0.3388,0.314,0.314,0.3141,0,0.2644,0.2672,0.2706,0.2735,0.2771,0.2818,0.2853,0.2883,0.2939,0.297,0.296,0.3053,0.3065,0.3131,0.3151,0.3157,0.3215,0.3132,0.3257,0.3269,0.3281,0.3374,0.3396,0.3143,0.3143,0.3142,0.3142,0,0.2648,0.2678,0.2691,0.2746,0.2787,0.2827,0.2885,0.2925,0.2956,0.2997,0.3073,0.3105,0.3162,0.3172,0.3174,0.3265,0.3287,0.3267,0.3234,0.3299,0.3394,0.3415,0.3146,0.3146,0.3145,0.3144,0,0,0.2599,0.2678,0.2684,0.272,0.2802,0.2838,0.2894,0.2974,0.3025,0.307,0.3144,0.3192,0.3225,0.3245,0.3265,0.3315,0.345,0.3323,0.3326,0.3412,0.3657,0.3645,0.3667,0.346,0.3463,0.3466,0.3701,0,0.2599,0.265,0.2696,0.2759,0.2801,0.287,0.2925,0.2999,0.3067,0.3151,0.3196,0.3279,0.3249,0.3296,0.3342,0.344,0.3505,0.339,0.3584,0.359,0.3567,0.369,0.3558,0.3754,0.3722,0.3725,0.3728,0,0.259,0.2634,0.2691,0.2787,0.2812,0.2853,0.2971,0.3031,0.3154,0.3212,0.3294,0.3354,0.3458,0.3413,0.3592,0.3527,0.3596,0.3647,0.3657,0.364,0.3617,0.3679,0.3794,0.3669,0.3761,0.3759,0.3756,0,0.2549,0.2631,0.2679,0.2711,0.2823,0.286,0.2925,0.3045,0.3127,0.327,0.3359,0.3469,0.3567,0.365,0.3759,0.3701,0.3958,0.3892,0.3944,0.3945,0.3866,0.3854,0.3873,0.4016,0.4015,0.4015,0.4014,0,0.2543,0.2582,0.266,0.269,0.2758,0.2839,0.2937,0.3018,0.3167,0.3283,0.3392,0.3512,0.3634,0.3786,0.3835,0.3986,0.4033,0.3987,0.4015,0.388,0.3866,0.3776,0.373,0.4024,0.4022,0.402,0.4018,0,0.2509,0.2558,0.262,0.2717,0.2742,0.2795,0.2938,0.3021,0.3165,0.3326,0.3387,0.3607,0.3809,0.3931,0.4116,0.4114,0.4126,0.4262,0.4106,0.4109,0.3984,0.3946,0.389,0.3774,0.4358,0.4359,0.436,0,0.2503,0.2526,0.2617,0.2654,0.2699,0.2784,0.285,0.2998,0.3095,0.3375,0.3451,0.3716,0.3867,0.4157,0.424,0.4376,0.4203,0.4306,0.4141,0.3995,0.3974,0.3782,0.3673,0.4076,0.4075,0.4074,0.4073,0,0.2504,0.2529,0.2586,0.2637,0.2697,0.2774,0.2872,0.2942,0.3135,0.3288,0.3501,0.3654,0.3961,0.4065,0.4266,0.4309,0.4087,0.4285,0.4174,0.3801,0.3556,0.345,0.3916,0.4063,0.4064,0.4065,0.4065,0.4066,0.2507,0.2528,0.2581,0.2636,0.269,0.2737,0.2763,0.2885,0.3021,0.3211,0.343,0.3607,0.3845,0.4112,0.4133,0.4091,0.4051,0.3964,0.3955,0.379,0.3582,0.4037,0.4173,0.4175,0.4176,0.4177,0.4178,0,0.2503,0.2522,0.2572,0.2615,0.2638,0.2684,0.2759,0.2766,0.2858,0.3081,0.3254,0.3505,0.3635,0.3773,0.3886,0.378,0.3558,0.3671,0.3352,0.3278,0.3738,0.3624,0.3597,0.3597,0.3597,0.3597,0.3597,0.3597,0.2505,0.2531,0.2549,0.2556,0.2569,0.2544,0.2556,0.2576,0.2674,0.2828,0.2973,0.3167,0.3451,0.3642,0.3583,0.35,0.3206,0.3093,0.3057,0.3369,0.3392,0.3414,0.3292,0.3195,0.3195,0.2418,0.2413,0.2409]},{"header":{"parameterUnit":"m.s-1","parameterCategory":2,"la1":30.2991,"la2":30.254,"lo1":-89.0895,"lo2":-89.0444,"dy":0.0017,"dx":0.0017,"nx":28,"ny":28,"refTime":"2024-03-29T21:00:00:Z","depth":"0","parameterNumber":3,"parameterNumberName":"V-component_of_CURRENTS"},"data":[0,0,0,0,0,0,0,0,0,0,0,0,0,0,0,0,0,0,0,0,0,0,0,0,0,0,0,0,0,0,0,0,0,0,0,0,0,0,0,0,0,0,0,0,0,0,0,0,0,0,0,0,0,0,0,0,0,0,0.02,0.0199,0,0.0121,0.0121,0.012,0.0061,0.0061,0.006,0.006,-0.0054,-0.0056,-0.0059,0,0,0,0,0,0,0,0,0,0,0,0,0,0.0265,0.0265,0.02,0.0199,0.0198,0.0122,0.012,0.0119,0.0061,0.0061,0.006,0.006,-0.0053,-0.0056,-0.0059,0,0,0,0,0,0,0,0,0,0,0,0,0,0.0216,0.0264,0.02,0.0161,0.0156,0.0122,0.012,0.0119,0.0062,0.0061,0.006,0.006,-0.0052,-0.0056,-0.006,-0.0071,0,0,-0.0072,-0.0073,0,0,0,0,0,0,0,0,0.0219,0.0214,0.0167,0.0163,0.0159,0.0101,0.0102,0.0054,0.0062,0.0097,0.006,0.0059,-0.0004,-0.0012,-0.0026,-0.0076,-0.0081,-0.0072,-0.0074,-0.0076,-0.0077,0,0,0,0,0,0,0,0.0223,0.0217,0.0168,0.0167,0.0161,0.0135,0.0128,0.0092,0.005,0.0094,0.0089,0.0082,-0.0007,-0.0022,-0.0029,-0.0082,-0.0072,-0.0075,-0.0078,-0.0079,-0.0154,-0.0154,0,0,0,0,0,0,0.0237,0.022,0.0171,0.0166,0.0189,0.0135,0.0126,0.012,0.0051,0.004,0.0083,0.008,-0.0015,-0.0024,-0.0033,-0.0038,-0.0076,-0.008,-0.0082,-0.0155,-0.0154,-0.0154,0,0,0,0,0,0,0.0238,0.0233,0.0174,0.0192,0.0183,0.0135,0.0127,0.0118,0.0105,0.0043,0.0031,0.0078,-0.0016,-0.0028,-0.0056,-0.0043,-0.0081,-0.0085,-0.0155,-0.0155,-0.0154,-0.0055,0,0,0,0,0,0,0.0241,0.0234,0.0237,0.0193,0.0182,0.0165,0.0128,0.0117,0.0101,0.0097,0.0035,0.0024,-0.0017,-0.0049,-0.006,-0.0049,-0.0088,-0.0156,-0.0155,-0.0154,-0.0058,-0.0051,-0.0044,0,0,0,0,0,0.0243,0.0251,0.0237,0.0231,0.0186,0.0166,0.0159,0.0121,0.0102,0.0105,0.0063,0.0026,-0.0053,-0.0052,-0.0064,-0.0054,-0.0156,-0.0155,-0.0154,-0.0061,-0.0052,-0.0044,0,0,0,0,0,0,0.028,0.0244,0.0229,0.0225,0.0203,0.0157,0.0154,0.0129,0.0098,0.0093,0.0033,0.002,-0.0001,-0.0042,-0.004,-0.0076,-0.0112,-0.0113,-0.0037,-0.0029,-0.0022,-0.0003,-0.0091,0,0,0,0,0,0.0291,0.0287,0.0251,0.025,0.0242,0.0201,0.0188,0.0165,0.013,0.0116,0.0074,0.0028,-0.0007,-0.0028,-0.0065,-0.0082,-0.0111,-0.0087,-0.0079,-0.0073,-0.0066,-0.01,-0.0095,-0.0151,-0.0151,-0.0151,0,0,0.0303,0.0286,0.0282,0.0258,0.0237,0.0236,0.0191,0.018,0.018,0.0109,0.0097,0.0054,-0.0005,-0.0023,-0.0037,-0.0056,-0.0068,-0.0072,-0.0066,-0.0063,-0.0099,-0.0093,-0.0088,-0.0151,-0.0151,-0.0151,0,0,0.0331,0.0314,0.0321,0.0308,0.0286,0.0266,0.0268,0.023,0.0214,0.0198,0.0148,0.0114,0.0062,0.0022,-0.0006,0.0016,-0.0027,0.0004,0.0053,0.0021,0.0026,0.003,0.0025,0.0028,0.0005,0.0005,0.0005,0,0.0349,0.035,0.0321,0.0327,0.0324,0.0286,0.0297,0.028,0.0239,0.0231,0.0208,0.0133,0.0082,0.0054,0.0062,0.0032,0.0019,0.003,0.0033,0.0035,0.0037,0.0031,0.0033,0.001,0.001,0.0009,0.0009,0,0.0377,0.0382,0.0388,0.0385,0.0381,0.0385,0.0361,0.0358,0.0335,0.0311,0.0285,0.0217,0.0174,0.015,0.0112,0.0102,0.0092,0.0051,0.0018,0.005,0.0041,0.0041,0.0017,0.0015,0.0014,0.0013,0,0,0.0405,0.0408,0.0409,0.0424,0.0412,0.0416,0.0424,0.0419,0.0438,0.0385,0.04,0.0319,0.0286,0.0252,0.0198,0.0162,0.0169,0.0124,0.012,0.0132,0.0127,0.0127,0.0126,0.0134,0.0134,0.0134,0.0125,0,0.0437,0.0469,0.0456,0.0494,0.0512,0.0489,0.0507,0.0499,0.0489,0.05,0.0422,0.0419,0.0326,0.0326,0.027,0.0206,0.0169,0.0176,0.0083,0.008,0.0086,0.0125,0.0107,0.0098,0.0124,0.0124,0.0124,0,0.0466,0.0489,0.0528,0.0562,0.0568,0.0589,0.0621,0.0634,0.0631,0.0626,0.0593,0.0551,0.0502,0.0423,0.0306,0.0322,0.0233,0.0166,0.0163,0.0126,0.0079,0.0062,0.0096,-0.0122,0.0123,0.0123,0.0123,0,0.051,0.054,0.0578,0.0585,0.0615,0.0637,0.0662,0.0674,0.0726,0.0728,0.0786,0.0677,0.0692,0.0538,0.0404,0.0363,0.0289,0.0209,0.0117,0.0117,0.0063,0.0058,-0.0118,0.0117,0.0117,0.0117,0.0117,0,0.055,0.0586,0.0607,0.0632,0.07,0.07,0.0791,0.0793,0.0859,0.0972,0.0871,0.0956,0.0727,0.0662,0.0472,0.0324,0.0339,0.0143,0.0115,0.01,0.0099,-0.0127,-0.0237,0.0116,0.0116,0.0116,0.0117,0,0.0602,0.0604,0.0664,0.0707,0.0724,0.0784,0.0903,0.099,0.103,0.1186,0.1212,0.1191,0.1112,0.0876,0.0667,0.0465,0.017,0.0218,0.0235,0.0208,-0.0113,-0.0215,-0.0382,-0.0458,0.0102,0.0102,0.0102,0,0.0637,0.0666,0.0729,0.0784,0.0813,0.091,0.1001,0.1065,0.1191,0.1362,0.1465,0.1443,0.1472,0.1156,0.0771,0.0436,0.0214,0.0194,0.0083,-0.0117,-0.0253,-0.0322,-0.038,0.0058,0.0057,0.0057,0.0057,0,0.072,0.0735,0.0794,0.0903,0.0999,0.1125,0.1268,0.1391,0.1528,0.1682,0.1883,0.1924,0.1636,0.1306,0.0832,0.0567,0.0046,0.0177,-0.005,-0.031,-0.0378,-0.0468,0.0068,0.0054,0.0054,0.0054,0.0055,0.0055,0.0799,0.086,0.0942,0.1052,0.1171,0.1356,0.1496,0.1683,0.1915,0.2168,0.2181,0.2266,0.1744,0.1096,0.074,0.002,0.0041,-0.0223,-0.0327,-0.0376,-0.0469,0.0084,0.0046,0.0046,0.0046,0.0046,0.0046,0,0.0913,0.0982,0.1092,0.1245,0.141,0.1443,0.1693,0.1862,0.2163,0.2351,0.2511,0.2255,0.1649,0.0981,0.004,-0.0415,-0.0586,-0.0674,-0.0817,-0.085,-0.0387,-0.0412,-0.0525,-0.0525,-0.0525,-0.0524,-0.0524,-0.0524,0.0988,0.1114,0.1169,0.1441,0.1553,0.1792,0.1944,0.2185,0.2353,0.2565,0.2568,0.2532,0.1964,0.0396,-0.0694,-0.0946,-0.1228,-0.1285,-0.1406,-0.1154,-0.1121,-0.1091,-0.1143,-0.1408,-0.1409,-0.1832,-0.1837,-0.184]}],[{"header":{"parameterUnit":"m.s-1","parameterCategory":2,"la1":30.2991,"la2":30.254,"lo1":-89.0895,"lo2":-89.0444,"dy":0.0017,"dx":0.0017,"nx":28,"ny":28,"refTime":"2024-03-29T21:00:00:Z","depth":"2","parameterNumber":2,"parameterNumberName":"U-component_of_CURRENTS"},"data":[0,0,0,0,0,0,0,0,0,0,0,0,0,0,0,0,0,0,0,0,0,0,0,0,0,0,0,0,0,0,0,0,0,0,0,0,0,0,0,0,0,0,0,0,0,0,0,0,0,0,0,0,0,0,0,0,0,0,0.237,0.2371,0,0.2415,0.2415,0.2415,0.2438,0.2438,0.2439,0.2439,0.2469,0.247,0.247,0,0,0,0,0,0,0,0,0,0,0,0,0,0.2275,0.2277,0.237,0.2371,0.2372,0.2415,0.2415,0.2415,0.2438,0.2438,0.2439,0.2439,0.2469,0.247,0.247,0,0,0,0,0,0,0,0,0,0,0,0,0,0.2315,0.2277,0.237,0.2391,0.2393,0.2415,0.2415,0.2415,0.2438,0.2438,0.2439,0.2439,0.2469,0.247,0.247,0.2466,0,0,0.2473,0.2473,0,0,0,0,0,0,0,0,0.2313,0.2318,0.2387,0.2389,0.2392,0.2424,0.2393,0.2433,0.2438,0.2418,0.2439,0.2439,0.2454,0.2456,0.246,0.2468,0.2469,0.2473,0.2473,0.2474,0.2474,0,0,0,0,0,0,0,0.231,0.2316,0.2385,0.2388,0.2391,0.2387,0.2394,0.24,0.243,0.242,0.2422,0.2432,0.2455,0.2459,0.2461,0.2469,0.2473,0.2473,0.2474,0.2474,0.2569,0.2571,0,0,0,0,0,0,0.2312,0.2314,0.2383,0.2386,0.2356,0.2389,0.2396,0.2411,0.2431,0.2435,0.2431,0.2433,0.2457,0.246,0.2462,0.2529,0.2474,0.2474,0.2475,0.2567,0.257,0.2572,0,0,0,0,0,0,0.231,0.2318,0.2382,0.2353,0.2361,0.2391,0.2407,0.2412,0.2425,0.244,0.2444,0.2442,0.2458,0.2461,0.2497,0.2528,0.2475,0.2475,0.2565,0.2568,0.2571,0.2619,0,0,0,0,0,0,0.2307,0.2317,0.2332,0.2353,0.2363,0.2406,0.2407,0.2412,0.2431,0.2433,0.245,0.2453,0.2458,0.2496,0.2498,0.2528,0.2476,0.2562,0.2566,0.257,0.2615,0.2623,0.2631,0,0,0,0,0,0.2303,0.232,0.2332,0.2341,0.2382,0.2407,0.2412,0.2432,0.2431,0.2443,0.2467,0.2453,0.2522,0.2498,0.25,0.2531,0.256,0.2565,0.2569,0.2611,0.2622,0.263,0,0,0,0,0,0,0.2285,0.2325,0.2338,0.2366,0.2392,0.2413,0.2428,0.2435,0.246,0.247,0.2472,0.2478,0.2524,0.2522,0.2496,0.2573,0.2541,0.2546,0.2573,0.2582,0.259,0.2584,0.2477,0,0,0,0,0,0.2289,0.2311,0.2347,0.2368,0.2385,0.2405,0.2419,0.2437,0.246,0.2472,0.2489,0.2514,0.2542,0.2557,0.2581,0.2613,0.2633,0.2639,0.2647,0.2653,0.2652,0.2711,0.2724,0.2587,0.2587,0.2587,0,0,0.2285,0.2311,0.2324,0.2366,0.2387,0.241,0.2414,0.2446,0.2468,0.2471,0.2512,0.254,0.2558,0.2607,0.2627,0.261,0.2711,0.2659,0.2664,0.266,0.2717,0.273,0.2742,0.259,0.2589,0.2589,0,0,0.2284,0.2317,0.2335,0.2362,0.2405,0.2422,0.2432,0.247,0.2494,0.2535,0.2554,0.2601,0.2632,0.2664,0.2677,0.2739,0.275,0.2754,0.2787,0.2845,0.2856,0.2866,0.2937,0.2952,0.2757,0.2758,0.2758,0,0.228,0.2312,0.2343,0.2369,0.2397,0.2426,0.2454,0.2477,0.2525,0.2559,0.2556,0.2645,0.2656,0.2722,0.2751,0.2755,0.2798,0.2745,0.2854,0.2864,0.2873,0.2943,0.296,0.276,0.276,0.276,0.276,0,0.2292,0.2324,0.2338,0.2383,0.2414,0.2447,0.249,0.2532,0.2562,0.2591,0.2672,0.2704,0.276,0.2776,0.2778,0.2863,0.2878,0.2856,0.2825,0.289,0.296,0.2977,0.2765,0.2764,0.2763,0.2762,0,0,0.2266,0.2335,0.2339,0.2371,0.2433,0.2458,0.2514,0.2577,0.2624,0.2674,0.2746,0.2795,0.2828,0.2848,0.2873,0.2918,0.3027,0.2921,0.2923,0.2983,0.3182,0.3107,0.3118,0.3032,0.3034,0.3036,0.3213,0,0.227,0.2317,0.2355,0.2404,0.2438,0.25,0.2544,0.2609,0.2669,0.2747,0.28,0.2868,0.2849,0.2898,0.2942,0.3013,0.3069,0.2982,0.3116,0.312,0.3038,0.3133,0.2886,0.3015,0.3229,0.3232,0.3234,0,0.2268,0.2307,0.2357,0.2436,0.2458,0.249,0.2597,0.2646,0.2755,0.2814,0.2897,0.2939,0.3036,0.3,0.3142,0.3095,0.3143,0.318,0.3187,0.3105,0.3075,0.298,0.3037,0.3262,0.3259,0.3257,0.3256,0,0.2235,0.2307,0.235,0.2377,0.2465,0.2512,0.2564,0.2669,0.275,0.287,0.2957,0.3043,0.3139,0.3189,0.3264,0.3223,0.3416,0.3366,0.3343,0.334,0.3146,0.312,0.3457,0.3456,0.3456,0.3456,0.3455,0,0.2226,0.2257,0.2339,0.2363,0.2429,0.2498,0.259,0.2665,0.2807,0.2912,0.2991,0.3096,0.3195,0.3306,0.3324,0.3402,0.3471,0.3372,0.3383,0.3159,0.3134,0.3343,0.3327,0.3462,0.3461,0.3459,0.3458,0,0.2183,0.2231,0.229,0.2385,0.2415,0.2468,0.2613,0.2685,0.2823,0.2978,0.303,0.3204,0.3329,0.3411,0.3534,0.3506,0.3557,0.3561,0.33,0.3275,0.343,0.3416,0.3558,0.3557,0.3556,0.3555,0.3554,0,0.2167,0.2192,0.2292,0.2334,0.238,0.2469,0.2531,0.2678,0.2775,0.3023,0.3098,0.3285,0.3364,0.3526,0.3519,0.3559,0.3593,0.3347,0.3193,0.3446,0.3443,0.343,0.3416,0.2982,0.2977,0.2972,0.2969,0,0.2155,0.219,0.2242,0.2318,0.2385,0.246,0.2569,0.2648,0.2831,0.2962,0.3129,0.3208,0.3366,0.329,0.3357,0.3328,0.3308,0.3258,0.3623,0.2976,0.2911,0.2905,0.291,0.293,0.2934,0.2937,0.2939,0.2941,0.215,0.2174,0.2242,0.2307,0.2383,0.2439,0.2471,0.2579,0.2703,0.2831,0.3,0.3024,0.3082,0.303,0.2971,0.2944,0.3144,0.2997,0.3007,0.3023,0.2906,0.284,0.2827,0.283,0.2833,0.2835,0.2837,0,0.2144,0.2169,0.2226,0.2284,0.2325,0.2394,0.2485,0.2462,0.2521,0.2644,0.2722,0.2542,0.2519,0.2576,0.2486,0.2503,0.2445,0.2398,0.2295,0.2338,0.2375,0.2219,0.1962,0.1959,0.1956,0.1953,0,0,0.2136,0.2169,0.218,0.2216,0.2257,0.2274,0.2301,0.2222,0.2267,0.2229,0.223,0.2383,0.2516,0.2193,0.2176,0.2058,0.2171,0.1983,0.2697,0.2622,0.2654,0.2748,0.2562,0,0,0,0,0]},{"header":{"parameterUnit":"m.s-1","parameterCategory":2,"la1":30.2991,"la2":30.254,"lo1":-89.0895,"lo2":-89.0444,"dy":0.0017,"dx":0.0017,"nx":28,"ny":28,"refTime":"2024-03-29T21:00:00:Z","depth":"2","parameterNumber":3,"parameterNumberName":"V-component_of_CURRENTS"},"data":[0,0,0,0,0,0,0,0,0,0,0,0,0,0,0,0,0,0,0,0,0,0,0,0,0,0,0,0,0,0,0,0,0,0,0,0,0,0,0,0,0,0,0,0,0,0,0,0,0,0,0,0,0,0,0,0,0,0,-0.0073,-0.0074,0,-0.0136,-0.0137,-0.0137,-0.0178,-0.0178,-0.0179,-0.0179,-0.0282,-0.0284,-0.0287,0,0,0,0,0,0,0,0,0,0,0,0,0,-0.0041,-0.0041,-0.0073,-0.0074,-0.0074,-0.0136,-0.0137,-0.0138,-0.0178,-0.0178,-0.0179,-0.0179,-0.0281,-0.0284,-0.0287,0,0,0,0,0,0,0,0,0,0,0,0,0,-0.0074,-0.0041,-0.0073,-0.0102,-0.0105,-0.0136,-0.0137,-0.0138,-0.0178,-0.0179,-0.0179,-0.0179,-0.028,-0.0284,-0.0288,-0.0305,0,0,-0.0299,-0.0301,0,0,0,0,0,0,0,0,-0.0072,-0.0076,-0.0097,-0.01,-0.0103,-0.0149,-0.0163,-0.0196,-0.0178,-0.0151,-0.0179,-0.0179,-0.0241,-0.0248,-0.0259,-0.031,-0.0314,-0.03,-0.0302,-0.0303,-0.0305,0,0,0,0,0,0,0,-0.007,-0.0074,-0.0098,-0.0097,-0.0102,-0.013,-0.0134,-0.017,-0.0194,-0.0153,-0.0156,-0.0162,-0.0243,-0.0255,-0.0262,-0.0316,-0.0299,-0.0303,-0.0305,-0.0307,-0.0386,-0.0386,0,0,0,0,0,0,-0.0058,-0.0071,-0.0096,-0.01,-0.0088,-0.013,-0.0135,-0.0135,-0.0193,-0.0202,-0.0162,-0.0164,-0.0248,-0.0257,-0.0266,-0.0273,-0.0303,-0.0307,-0.0309,-0.0386,-0.0386,-0.0386,0,0,0,0,0,0,-0.0057,-0.0059,-0.0094,-0.0087,-0.0093,-0.0129,-0.0129,-0.0136,-0.0147,-0.0199,-0.0209,-0.0166,-0.0249,-0.026,-0.029,-0.0278,-0.0309,-0.0312,-0.0386,-0.0386,-0.0386,-0.03,0,0,0,0,0,0,-0.0056,-0.0058,-0.0051,-0.0086,-0.0093,-0.0105,-0.0129,-0.0137,-0.015,-0.0153,-0.0206,-0.0216,-0.025,-0.0284,-0.0294,-0.0284,-0.0315,-0.0386,-0.0386,-0.0386,-0.0303,-0.0296,-0.0291,0,0,0,0,0,-0.0054,-0.004,-0.005,-0.0053,-0.0082,-0.0104,-0.011,-0.0138,-0.015,-0.015,-0.0184,-0.0214,-0.0289,-0.0286,-0.0298,-0.029,-0.0387,-0.0386,-0.0386,-0.0305,-0.0298,-0.0291,0,0,0,0,0,0,-0.002,-0.0044,-0.0055,-0.0049,-0.0072,-0.0111,-0.0111,-0.0133,-0.016,-0.016,-0.0212,-0.0224,-0.0246,-0.0282,-0.0278,-0.0313,-0.0343,-0.0345,-0.0278,-0.0271,-0.0265,-0.0238,-0.0318,0,0,0,0,0,-0.0008,-0.0005,-0.0036,-0.003,-0.0038,-0.0074,-0.0085,-0.0103,-0.0133,-0.0145,-0.0181,-0.022,-0.0254,-0.0272,-0.0308,-0.0326,-0.0358,-0.033,-0.0324,-0.0318,-0.0305,-0.0348,-0.0344,-0.0384,-0.0384,-0.0384,0,0,0.0006,-0.0006,-0.0004,-0.0023,-0.0041,-0.0043,-0.0081,-0.009,-0.0089,-0.0153,-0.0159,-0.0201,-0.0255,-0.0273,-0.0286,-0.0301,-0.0323,-0.0318,-0.0313,-0.0302,-0.0347,-0.0343,-0.0339,-0.0384,-0.0384,-0.0384,0,0,0.0037,0.0028,0.004,0.0026,0.0005,-0.0015,-0.0015,-0.0047,-0.0059,-0.0075,-0.0118,-0.0152,-0.0201,-0.0235,-0.026,-0.0246,-0.0291,-0.0259,-0.0206,-0.0248,-0.0244,-0.0242,-0.0269,-0.0269,-0.0255,-0.0255,-0.0255,0,0.0057,0.0067,0.004,0.0046,0.0044,0.0002,0.0016,-0.0002,-0.0039,-0.0041,-0.0064,-0.0133,-0.0182,-0.0206,-0.02,-0.0232,-0.0256,-0.0225,-0.0238,-0.0237,-0.0235,-0.0264,-0.0265,-0.0251,-0.0251,-0.0252,-0.0252,0,0.0091,0.01,0.0107,0.0105,0.01,0.0104,0.0079,0.0078,0.0058,0.0034,0.0011,-0.0055,-0.0094,-0.0119,-0.0155,-0.0169,-0.0189,-0.0225,-0.025,-0.0226,-0.0258,-0.0261,-0.0245,-0.0246,-0.0247,-0.0249,0,0,0.0132,0.0133,0.0135,0.0149,0.0133,0.0136,0.0147,0.0143,0.0159,0.0112,0.0124,0.0051,0.0016,-0.0015,-0.007,-0.0107,-0.0126,-0.0152,-0.0156,-0.0166,-0.0201,-0.0236,-0.0244,-0.0161,-0.0161,-0.0162,-0.0223,0,0.0168,0.02,0.0188,0.0223,0.024,0.0218,0.0234,0.0227,0.0212,0.0214,0.0145,0.0127,0.0055,0.0041,-0.0007,-0.0094,-0.0131,-0.0105,-0.0233,-0.0237,-0.0262,-0.0248,-0.0211,-0.0265,-0.0227,-0.0227,-0.0228,0,0.0204,0.0224,0.0264,0.0294,0.03,0.0318,0.0348,0.0357,0.0344,0.0335,0.0302,0.0244,0.0188,0.0122,-0.0009,0.0014,-0.008,-0.0154,-0.016,-0.0222,-0.0278,-0.0287,-0.0273,-0.0234,-0.0234,-0.0233,-0.0233,0,0.0249,0.0279,0.0318,0.0324,0.0347,0.0374,0.0393,0.0397,0.0436,0.0416,0.0444,0.0344,0.0323,0.0184,0.0027,0.001,-0.0114,-0.0165,-0.0284,-0.0288,-0.0298,-0.0302,-0.0256,-0.0256,-0.0256,-0.0256,-0.0256,0,0.0289,0.0322,0.0346,0.0368,0.0433,0.0432,0.0503,0.0509,0.0549,0.0615,0.0515,0.0536,0.034,0.0242,0.0072,-0.0105,-0.0086,-0.0266,-0.0306,-0.0267,-0.0267,-0.0277,-0.0279,-0.0258,-0.0258,-0.0257,-0.0257,0,0.0327,0.0337,0.0392,0.0434,0.0455,0.0507,0.0598,0.0655,0.0679,0.0769,0.0775,0.0698,0.0555,0.0351,0.013,-0.0026,-0.0214,-0.0284,-0.0218,-0.025,-0.0372,-0.0368,-0.0427,-0.0429,-0.043,-0.0432,-0.0433,0,0.0347,0.0375,0.0443,0.0492,0.0517,0.0596,0.066,0.0715,0.0798,0.0869,0.0925,0.0821,0.0746,0.041,0.0106,-0.0192,-0.0225,-0.0341,-0.0385,-0.0356,-0.0389,-0.0383,-0.0378,-0.0359,-0.036,-0.036,-0.036,0,0.0391,0.0413,0.0462,0.0562,0.0641,0.0736,0.0842,0.0927,0.1012,0.1085,0.1142,0.1082,0.0772,0.0462,0.0063,-0.0139,-0.0299,-0.0359,-0.0341,-0.0325,-0.0299,-0.0329,-0.0325,-0.0363,-0.0362,-0.0362,-0.0362,-0.0362,0.0427,0.047,0.0542,0.0639,0.0744,0.0874,0.0955,0.1077,0.1209,0.1304,0.1267,0.1196,0.0864,0.0331,-0.0,-0.0329,-0.0336,-0.0448,-0.0444,-0.044,-0.0425,-0.0403,-0.0483,-0.0483,-0.0484,-0.0484,-0.0484,0,0.0468,0.0522,0.0615,0.0734,0.0858,0.0913,0.1075,0.1149,0.1291,0.137,0.1386,0.1097,0.0752,0.0395,-0.0096,-0.0412,-0.0426,-0.0499,-0.0438,-0.0434,-0.0431,-0.0413,-0.0469,-0.047,-0.047,-0.0471,0,0,0.0487,0.0577,0.0622,0.0814,0.091,0.1043,0.1135,0.1239,0.1326,0.1394,0.1382,0.1259,0.086,0.051,0.0087,-0.0177,-0.0234,-0.0236,-0.0217,-0.0092,-0.0085,-0.0375,-0.034,0,0,0,0,0]}],[{"header":{"parameterUnit":"m.s-1","parameterCategory":2,"la1":30.2991,"la2":30.254,"lo1":-89.0895,"lo2":-89.0444,"dy":0.0017,"dx":0.0017,"nx":28,"ny":28,"refTime":"2024-03-29T21:00:00:Z","depth":"4","parameterNumber":2,"parameterNumberName":"U-component_of_CURRENTS"},"data":[0,0,0,0,0,0,0,0,0,0,0,0,0,0,0,0,0,0,0,0,0,0,0,0,0,0,0,0,0,0,0,0,0,0,0,0,0,0,0,0,0,0,0,0,0,0,0,0,0,0,0,0,0,0,0,0,0,0,0.1496,0.1497,0,0.155,0.155,0.155,0.1605,0.1606,0.1607,0.1608,0.1662,0.1662,0.1663,0,0,0,0,0,0,0,0,0,0,0,0,0,0.1396,0.1398,0.1496,0.1497,0.1498,0.1549,0.155,0.155,0.1605,0.1606,0.1607,0.1608,0.1661,0.1662,0.1663,0,0,0,0,0,0,0,0,0,0,0,0,0,0.1441,0.1398,0.1496,0.1533,0.1537,0.1549,0.155,0.1551,0.1605,0.1606,0.1607,0.1609,0.1661,0.1662,0.1663,0.1639,0,0,0.1665,0.1666,0,0,0,0,0,0,0,0,0.1439,0.1445,0.1526,0.153,0.1535,0.1574,0.1535,0.1581,0.1604,0.1576,0.1608,0.1609,0.1633,0.1636,0.164,0.1642,0.1644,0.1665,0.1666,0.1666,0.1666,0,0,0,0,0,0,0,0.1436,0.1442,0.1515,0.1527,0.1532,0.1532,0.154,0.1543,0.1594,0.1579,0.1584,0.1593,0.1635,0.1639,0.1641,0.1645,0.1665,0.1666,0.1667,0.1667,0.1746,0.1747,0,0,0,0,0,0,0.1435,0.144,0.1513,0.1517,0.1492,0.1533,0.1542,0.1558,0.1594,0.1602,0.1592,0.1595,0.1637,0.164,0.1643,0.1717,0.1666,0.1667,0.1667,0.1744,0.1746,0.1748,0,0,0,0,0,0,0.1432,0.1441,0.1511,0.1481,0.149,0.1533,0.1551,0.1558,0.1598,0.1604,0.1612,0.1629,0.1638,0.1642,0.1677,0.1715,0.1667,0.1668,0.1742,0.1745,0.1747,0.1799,0,0,0,0,0,0,0.1429,0.144,0.1463,0.1481,0.1492,0.154,0.155,0.1559,0.1601,0.1607,0.1637,0.1642,0.1639,0.1675,0.1677,0.1716,0.1669,0.174,0.1744,0.1746,0.1795,0.1803,0.1809,0,0,0,0,0,0.1426,0.1447,0.1463,0.1473,0.1518,0.1541,0.1547,0.158,0.1602,0.1621,0.1644,0.1643,0.1697,0.1677,0.1679,0.1718,0.1739,0.1743,0.1746,0.1792,0.1801,0.1809,0,0,0,0,0,0,0.1417,0.1455,0.1474,0.1507,0.1534,0.1552,0.1578,0.1598,0.1631,0.1646,0.1653,0.1659,0.1705,0.1703,0.1681,0.1752,0.1722,0.1726,0.1756,0.1765,0.1772,0.1771,0.1669,0,0,0,0,0,0.1424,0.1455,0.1483,0.1515,0.153,0.156,0.1579,0.1601,0.1627,0.1645,0.1666,0.1692,0.1714,0.1734,0.1747,0.1778,0.1789,0.1809,0.1816,0.1822,0.1824,0.1875,0.1887,0.176,0.176,0.176,0,0,0.1431,0.1457,0.1476,0.1516,0.1541,0.1562,0.1576,0.1615,0.1641,0.1643,0.1695,0.1715,0.1728,0.1767,0.1789,0.1776,0.1867,0.1827,0.1832,0.1831,0.188,0.1893,0.1904,0.1762,0.1762,0.1762,0,0,0.1445,0.1483,0.1508,0.1531,0.1574,0.1587,0.1606,0.1642,0.1673,0.1713,0.1729,0.1771,0.1803,0.1823,0.1834,0.1887,0.19,0.1906,0.1945,0.1995,0.2006,0.2015,0.2054,0.2067,0.1913,0.1914,0.1914,0,0.1452,0.1487,0.1519,0.1543,0.1565,0.1602,0.1624,0.1654,0.17,0.1732,0.174,0.1818,0.1827,0.1881,0.1904,0.1903,0.1935,0.191,0.2004,0.2014,0.2023,0.206,0.2073,0.1916,0.1916,0.1916,0.1916,0,0.1474,0.1509,0.1527,0.157,0.1595,0.1623,0.166,0.1704,0.1746,0.1777,0.1854,0.1874,0.1928,0.194,0.1937,0.2014,0.2017,0.2004,0.198,0.2039,0.2074,0.2087,0.1921,0.192,0.1919,0.1918,0,0,0.1464,0.1529,0.1538,0.1559,0.1612,0.1629,0.1685,0.174,0.1794,0.1848,0.1921,0.1962,0.2001,0.2017,0.2034,0.2072,0.2158,0.2074,0.2075,0.2108,0.2279,0.2132,0.2131,0.2174,0.2177,0.2179,0.2282,0,0.1472,0.1512,0.1548,0.1588,0.1606,0.1661,0.1708,0.1768,0.183,0.1911,0.1963,0.2037,0.2024,0.2074,0.2111,0.2152,0.2194,0.2132,0.2221,0.2223,0.2081,0.2141,0.2186,0.2291,0.2294,0.2296,0.2298,0,0.1473,0.15,0.1538,0.1598,0.1615,0.1652,0.1742,0.179,0.1905,0.1965,0.2055,0.211,0.2195,0.2172,0.2273,0.2244,0.227,0.2285,0.229,0.2139,0.2098,0.222,0.2321,0.2319,0.2317,0.2316,0.2314,0,0.1431,0.1491,0.152,0.1539,0.1613,0.166,0.1711,0.1815,0.1874,0.202,0.209,0.2196,0.2272,0.2323,0.2369,0.2345,0.2465,0.2432,0.2321,0.2312,0.2391,0.2379,0.25,0.25,0.2499,0.2499,0.2499,0,0.1406,0.1433,0.151,0.1526,0.1576,0.1641,0.1724,0.1801,0.1925,0.2005,0.2123,0.2202,0.2318,0.2399,0.2416,0.2409,0.2512,0.2336,0.233,0.2411,0.2401,0.24,0.2387,0.2503,0.2502,0.2501,0.2501,0,0.1347,0.1403,0.1439,0.1525,0.1558,0.1594,0.1718,0.1779,0.1909,0.2024,0.2083,0.2243,0.2347,0.2429,0.2526,0.2456,0.2471,0.2442,0.254,0.2537,0.2274,0.2263,0.2325,0.2321,0.2317,0.2314,0.2311,0,0.1315,0.1327,0.1422,0.1449,0.1495,0.1568,0.1626,0.176,0.1823,0.2027,0.2067,0.2235,0.2328,0.2343,0.2432,0.2465,0.2429,0.2421,0.232,0.2269,0.2258,0.2253,0.2247,0.2305,0.2304,0.2303,0.2303,0,0.1235,0.1286,0.1316,0.1379,0.1441,0.1497,0.1588,0.1619,0.1782,0.1926,0.2018,0.2089,0.2198,0.2263,0.231,0.2321,0.2414,0.2382,0.2388,0.2293,0.2246,0.2238,0.2236,0.229,0.2292,0.2293,0.2294,0,0.1175,0.1179,0.1235,0.128,0.1354,0.139,0.1456,0.1531,0.1609,0.1825,0.1861,0.2032,0.2187,0.219,0.2232,0.2236,0.219,0.2103,0.2123,0.2138,0.2025,0.1934,0.1885,0,0,0,0,0,0.1098,0.1096,0.1129,0.1167,0.1243,0.1292,0.1409,0.1482,0.1645,0.1666,0.1754,0.1851,0.1932,0.2013,0.1978,0.2135,0.2188,0.2083,0.2094,0.2219,0.2234,0.2116,0,0,0,0,0,0,0.1045,0.1066,0.1083,0.1065,0.1079,0.1148,0.1223,0.134,0.1349,0.153,0.1581,0.1729,0.1827,0.1933,0.1939,0.1963,0.193,0.2189,0.2184,0.2211,0.2224,0.2236,0.212,0,0,0,0,0]},{"header":{"parameterUnit":"m.s-1","parameterCategory":2,"la1":30.2991,"la2":30.254,"lo1":-89.0895,"lo2":-89.0444,"dy":0.0017,"dx":0.0017,"nx":28,"ny":28,"refTime":"2024-03-29T21:00:00:Z","depth":"4","parameterNumber":3,"parameterNumberName":"V-component_of_CURRENTS"},"data":[0,0,0,0,0,0,0,0,0,0,0,0,0,0,0,0,0,0,0,0,0,0,0,0,0,0,0,0,0,0,0,0,0,0,0,0,0,0,0,0,0,0,0,0,0,0,0,0,0,0,0,0,0,0,0,0,0,0,-0.0101,-0.0101,0,-0.0141,-0.0142,-0.0142,-0.0172,-0.0172,-0.0172,-0.0173,-0.0247,-0.0249,-0.025,0,0,0,0,0,0,0,0,0,0,0,0,0,-0.0084,-0.0084,-0.0101,-0.0101,-0.0102,-0.0141,-0.0142,-0.0142,-0.0172,-0.0172,-0.0172,-0.0173,-0.0246,-0.0248,-0.025,0,0,0,0,0,0,0,0,0,0,0,0,0,-0.0104,-0.0084,-0.0101,-0.0121,-0.0123,-0.0141,-0.0142,-0.0142,-0.0172,-0.0172,-0.0173,-0.0173,-0.0246,-0.0248,-0.0251,-0.026,0,0,-0.0259,-0.026,0,0,0,0,0,0,0,0,-0.0103,-0.0105,-0.0118,-0.012,-0.0122,-0.0152,-0.0163,-0.0183,-0.0172,-0.0154,-0.0173,-0.0173,-0.0218,-0.0223,-0.0229,-0.0264,-0.0267,-0.0259,-0.0261,-0.0262,-0.0263,0,0,0,0,0,0,0,-0.0102,-0.0104,-0.0117,-0.0118,-0.0121,-0.014,-0.0143,-0.0167,-0.0184,-0.0155,-0.0157,-0.0161,-0.0219,-0.0227,-0.0231,-0.0268,-0.0259,-0.0261,-0.0263,-0.0264,-0.0329,-0.0329,0,0,0,0,0,0,-0.0094,-0.0102,-0.0116,-0.0118,-0.0113,-0.014,-0.0143,-0.0142,-0.0183,-0.0189,-0.0161,-0.0163,-0.0222,-0.0228,-0.0234,-0.0247,-0.0262,-0.0264,-0.0266,-0.0329,-0.0329,-0.0329,0,0,0,0,0,0,-0.0093,-0.0094,-0.0114,-0.0111,-0.0115,-0.0139,-0.0138,-0.0143,-0.0152,-0.0187,-0.0194,-0.0166,-0.0223,-0.0231,-0.0254,-0.0251,-0.0265,-0.0268,-0.0329,-0.0329,-0.0329,-0.0274,0,0,0,0,0,0,-0.0092,-0.0094,-0.009,-0.011,-0.0115,-0.0121,-0.0138,-0.0143,-0.0154,-0.0156,-0.0193,-0.0201,-0.0223,-0.025,-0.0257,-0.0255,-0.027,-0.0328,-0.0329,-0.0329,-0.0276,-0.0272,-0.027,0,0,0,0,0,-0.0091,-0.0082,-0.0089,-0.0091,-0.0109,-0.0121,-0.0125,-0.0144,-0.0153,-0.0154,-0.018,-0.0199,-0.0257,-0.0252,-0.026,-0.0258,-0.0328,-0.0329,-0.0329,-0.0277,-0.0273,-0.027,0,0,0,0,0,0,-0.0071,-0.0085,-0.0093,-0.0088,-0.0103,-0.0126,-0.0127,-0.0142,-0.0162,-0.0164,-0.0199,-0.0208,-0.0229,-0.0253,-0.0246,-0.028,-0.0297,-0.0299,-0.0255,-0.0251,-0.0248,-0.0222,-0.0272,0,0,0,0,0,-0.0064,-0.0062,-0.0081,-0.0077,-0.0082,-0.0104,-0.0112,-0.0124,-0.0145,-0.0154,-0.018,-0.021,-0.0236,-0.025,-0.0276,-0.0292,-0.0317,-0.0298,-0.0295,-0.0292,-0.0278,-0.0317,-0.0316,-0.033,-0.033,-0.033,0,0,-0.0055,-0.0062,-0.0061,-0.0072,-0.0084,-0.0082,-0.011,-0.0116,-0.0113,-0.0159,-0.0165,-0.02,-0.0238,-0.0255,-0.0267,-0.0274,-0.0304,-0.0293,-0.029,-0.0276,-0.0317,-0.0316,-0.0314,-0.033,-0.033,-0.033,0,0,-0.0032,-0.0041,-0.0031,-0.004,-0.0054,-0.0065,-0.0066,-0.0088,-0.0097,-0.011,-0.0143,-0.0172,-0.021,-0.0234,-0.0252,-0.0249,-0.0287,-0.0264,-0.0225,-0.0264,-0.0263,-0.0262,-0.0297,-0.0299,-0.0261,-0.0261,-0.0261,0,-0.002,-0.001,-0.0031,-0.0024,-0.0023,-0.0054,-0.0041,-0.0053,-0.008,-0.0082,-0.0104,-0.016,-0.0197,-0.0214,-0.0215,-0.024,-0.0268,-0.0234,-0.0258,-0.0258,-0.0258,-0.0294,-0.0298,-0.0258,-0.0259,-0.0259,-0.0259,0,0.0007,0.0016,0.0022,0.0024,0.0021,0.0026,0.001,0.0008,-0.001,-0.0027,-0.0051,-0.0104,-0.0134,-0.0159,-0.0185,-0.0204,-0.0226,-0.025,-0.0262,-0.0253,-0.0292,-0.0297,-0.0255,-0.0256,-0.0256,-0.0257,0,0,0.0035,0.0041,0.0044,0.0058,0.0048,0.0054,0.0063,0.0063,0.0076,0.0034,0.0038,-0.0019,-0.0052,-0.0075,-0.0121,-0.0158,-0.0191,-0.0198,-0.0202,-0.0223,-0.0276,-0.0276,-0.0282,-0.0222,-0.0222,-0.0222,-0.0304,0,0.0065,0.0093,0.0087,0.0122,0.0136,0.0123,0.0138,0.0133,0.0117,0.0111,0.0054,0.0033,-0.0019,-0.0038,-0.0081,-0.0165,-0.0201,-0.0167,-0.029,-0.0293,-0.0286,-0.0286,-0.0224,-0.0308,-0.0309,-0.031,-0.031,0,0.0094,0.0111,0.0146,0.0179,0.0186,0.0203,0.0229,0.0238,0.0221,0.0207,0.0173,0.0122,0.0066,0.0017,-0.0107,-0.0085,-0.0167,-0.0236,-0.0241,-0.0259,-0.0302,-0.0321,-0.032,-0.0319,-0.0318,-0.0318,-0.0317,0,0.0124,0.0157,0.019,0.0197,0.0223,0.0248,0.0267,0.0267,0.0284,0.0266,0.0262,0.0189,0.0143,0.0039,-0.0103,-0.0107,-0.0246,-0.0272,-0.0347,-0.0349,-0.0348,-0.0348,-0.0351,-0.0351,-0.0351,-0.0351,-0.035,0,0.0155,0.0185,0.021,0.0229,0.0284,0.0289,0.0342,0.035,0.0357,0.0374,0.0313,0.0294,0.0145,0.0044,-0.0079,-0.0226,-0.023,-0.0333,-0.0367,-0.0325,-0.0322,-0.0352,-0.0351,-0.0354,-0.0353,-0.0352,-0.0352,0,0.0177,0.0191,0.0236,0.0277,0.0298,0.0337,0.0396,0.0428,0.0431,0.0448,0.0443,0.0362,0.0232,0.008,-0.0103,-0.0196,-0.0336,-0.0387,-0.0324,-0.0355,-0.0418,-0.0413,-0.047,-0.047,-0.0471,-0.0471,-0.0471,0,0.0187,0.0207,0.0267,0.0301,0.0323,0.0384,0.0427,0.0461,0.049,0.0484,0.0487,0.0381,0.0306,0.0066,-0.0104,-0.0325,-0.0361,-0.0426,-0.0422,-0.0401,-0.0429,-0.0423,-0.0418,-0.0472,-0.0472,-0.0473,-0.0473,0,0.02,0.0219,0.0255,0.0322,0.0377,0.0444,0.0504,0.053,0.0561,0.0566,0.0529,0.0411,0.0264,0.0073,-0.0101,-0.0263,-0.0377,-0.0432,-0.0432,-0.0429,-0.0405,-0.0431,-0.0425,-0.0475,-0.0474,-0.0474,-0.0474,0,0.0204,0.0229,0.0273,0.0338,0.0406,0.0471,0.0512,0.0549,0.0582,0.0578,0.056,0.0416,0.0333,0.0103,-0.0059,-0.0214,-0.0256,-0.0301,-0.0308,-0.0309,-0.0241,-0.0185,-0.0208,0,0,0,0,0,0.0199,0.0228,0.0285,0.0354,0.0423,0.0471,0.0544,0.0577,0.0607,0.0594,0.0584,0.0455,0.0228,0.0129,-0.0026,-0.0095,-0.0303,-0.0283,-0.0363,-0.0484,-0.0482,-0.043,0,0,0,0,0,0,0.0192,0.0238,0.0277,0.0354,0.0406,0.0487,0.0539,0.0566,0.0564,0.0572,0.0457,0.0419,0.0194,0.0316,-0.0028,-0.0076,-0.0147,-0.0384,-0.0387,-0.0486,-0.0484,-0.0482,-0.0428,0,0,0,0,0]}]]